User: anonymous   Login
Location: Eaton Estates
(41.3089°N, 82.0057°W)
Time: 13:27:36
(UTC+00:00)
Language:

ZACube-1 - Orbit

View from above orbital plane
View from above orbital plane
View from above satellite
View from above satellite

Ground track
Ground track

The orbit data is extracted from the following two-line orbital elements,

1 39417U 13066B   24113.87769512  .00012819  00000-0  13521-2 0  9991
2 39417  97.7296  71.1325 0050767 345.6413  14.3358 14.88471989563351
Epoch (UTC): 22 April 2024 21:03:52
Eccentricity: 0.0050767
inclination: 97.7296°
perigee height: 567 km
apogee height: 638 km
right ascension of ascending node: 71.1325°
argument of perigee: 345.6413°
revolutions per day: 14.88471989
mean anomaly at epoch: 14.3358°
orbit number at epoch: 56335

The dashed part of the orbit path shows where the satellite is in the earth's shadow,  

DLR